Simultaneous Nadir Overpasses (SNOs) Predictions

Prediction of SNOs between METOP-A and TERRA Satellite Orbit:

Table of predicted SNOs for the next 14.0 days since TLE Epoch: 10/23/2021
Index Date (METOP-A) Time (METOP-A) Lat,Lon (METOP-A) SZA (METOP-A ) Date (TERRA) Time (TERRA) Lat,Lon (TERRA) SZA (TERRA ) Distance(km) Time Diff (sec)
1 10/23/2021 08:02:07 -81.25, -76.09 84.39 10/23/2021 08:02:30 -81.25, -76.29 84.41 3.42 23
2 10/23/2021 08:52:47 81.24, 91.60 95.66 10/23/2021 08:51:56 81.25, 91.44 95.63 3.15 51
3 10/26/2021 03:36:26 -81.26, -9.91 83.44 10/26/2021 03:36:40 -81.24, -9.92 83.44 1.76 14
4 10/26/2021 04:27:06 81.24, 157.76 96.61 10/26/2021 04:26:06 81.25, 157.79 96.58 0.55 60
5 10/28/2021 23:10:45 -81.25, 56.62 82.48 10/28/2021 23:10:50 -81.26, 56.77 82.46 2.65 5
6 10/29/2021 00:01:26 81.25,-136.10 97.53 10/29/2021 00:00:17 81.24,-135.92 97.51 3.41 69
7 10/31/2021 17:54:24 81.25, -44.45 98.41 10/31/2021 17:55:34 81.25, -44.58 98.43 2.24 70
8 10/31/2021 18:45:04 -81.24, 123.13 81.56 10/31/2021 18:45:01 -81.25, 123.03 81.57 1.69 3
9 11/03/2021 13:28:42 81.25, 22.03 99.30 11/03/2021 13:29:43 81.26, 21.98 99.33 1.13 61



Historial Predications of SNOs between METOP-A and TERRA
